SCP
0 0 0 0 0 0 0 0 0 0 0 0 0 0 0 0 0 0 0 0 0 0 0 0 0 0 0 0 0 -0 -0 0 0 0 0 0 0 1 0 0 0 0 0 0
0 0 0 0 0 0 0 0 0 0 0 0 0 0 0 0 0 0 0 0 0 0 0 0 0 0 0 0 0 0 -0 0 0 0 0 1 1 1 0 0 0 0 0 0
0 0 0 0 0 0 0 0 0 0 0 0 0 0 0 0 0 0 0 0 0 0 0 0 0 0 0 0 0 0 -0 0 -0 0 0 1 1 0 1 1 0 0 0 0
0 0 0 0 0 0 0 0 0 0 0 0 0 0 0 0 0 0 0 0 0 0 0 0 0 0 0 0 0 0 -0 -0 0 -0 1 1 0 1 0 0 0 0 0 0
0 0 0 0 0 0 0 0 0 0 0 0 0 0 0 0 0 0 0 -0 -0 0 -0 0 0 0 0 0 0 0 0 -0 0 0 0 0 0 0 0 0 0 0 0 0
0 0 0 0 0 0 0 0 0 0 0 0 0 0 0 0 0 -0 -0 -0 -0 -0 0 0 0 0 0 0 0 0 0 -0 0 0 0 0 0 0 0 0 0 0 0 0
0 0 0 0 0 0 0 -0 -0 0 0 0 0 0 0 0 0 -0 -0 -0 -0 0 0 0 0 0 0 0 0 0 0 0 0 0 0 0 0 0 0 0 0 0 0 0
0 0 0 0 0 0 0 0 0 0 0 0 0 0 0 0 0 0 -0 0 0 0 0 0 0 0 0 0 0 0 0 0 0 0 0 0 0 0 0 0 0 0 0 0
0 0 0 0 0 0 0 0 0 0 0 0 0 0 0 0 0 0 0 0 0 0 0 0 0 0 0 0 0 0 0 0 0 0 0 0 0 0 0 0 0 0 0 0
0 0 0 0 0 0 0 0 0 0 0 0 0 0 0 0 -0 0 0 0 -0 0 -0 0 0 0 0 0 0 0 0 0 0 0 0 0 0 0 0 0 0 0 0 0
0 0 0 0 0 0 -0 0 0 0 0 0 0 0 0 -0 0 0 -0 -0 -0 -0 -0 -0 0 0 0 0 0 0 0 0 0 0 0 0 0 0 0 0 0 0 0 0
0 0 0 0 0 0 0 0 0 0 0 0 0 0 0 0 0 0 0 -0 -0 -0 -0 -0 0 0 0 0 0 0 0 0 0 0 0 0 0 0 0 0 0 0 0 0
0 0 0 0 0 0 0 0 0 0 0 0 0 0 0 0 0 0 0 0 -0 -0 -0 -0 0 0 0 0 0 0 0 0 0 0 0 0 0 0 0 0 0 0 0 0
0 0 0 0 0 0 0 0 0 0 0 0 0 0 0 0 0 0 0 0 -0 -0 -0 0 0 0 0 0 0 0 0 0 0 0 0 0 0 0 0 0 0 0 0 0
0 0 0 0 0 -0 0 0 0 0 0 0 0 0 0 0 0 0 0 0 -0 -0 -0 0 0 0 0 0 0 0 0 0 0 0 0 0 0 0 0 0 0 0 0 0
0 0 0 0 0 -0 0 0 0 0 0 0 0 0 0 0 0 0 0 0 0 0 -0 -0 0 0 0 0 0 0 0 0 0 0 0 0 0 0 0 0 0 0 0 0
0 0 0 0 0 -0 -0 0 0 0 0 0 0 0 0 0 0 0 0 0 0 0 0 0 0 0 0 0 0 0 0 0 0 0 0 0 0 0 0 0 0 0 0 0
0 0 0 0 0 0 -0 0 0 0 0 0 0 0 0 0 0 0 0 0 0 0 0 0 0 0 0 0 0 0 0 0 0 0 0 0 0 0 0 0 0 0 0 0
0 0 0 0 0 0 0 0 0 0 0 0 0 0 0 0 0 0 0 0 0 0 0 0 0 0 0 0 0 0 0 0 0 0 0 0 0 0 0 0 0 0 0 0
0 0 0 0 0 -0 -0 -0 0 -0 0 0 0 0 0 0 0 0 0 0 0 0 0 0 0 0 0 0 0 0 0 0 0 0 0 0 0 0 0 0 0 0 0 0
0 0 0 0 0 -0 -0 0 0 -0 0 0 0 0 0 0 0 0 0 0 0 0 0 0 0 0 0 0 0 0 0 0 0 0 0 -0 0 0 0 -0 0 0 0 0
0 0 0 0 0 -0 0 0 -0 -0 0 0 0 0 0 0 0 0 0 0 0 0 0 0 0 0 0 0 0 0 0 0 0 0 -0 -0 -0 0 0 0 0 0 0 0
0 0 0 0 0 0 0 0 0 0 0 0 0 0 -0 0 0 0 0 0 0 0 0 0 0 0 0 0 0 0 0 0 0 -0 0 -0 -0 -0 -0 -0 0 0 0 0
0 0 0 0 0 0 0 0 0 0 -0 0 0 0 0 0 0 0 0 0 0 0 0 0 0 0 0 0 0 0 -0 -0 -0 -0 -0 -0 -0 0 0 -0 0 0 0 0
0 0 0 0 0 0 0 -0 0 0 0 0 0 0 0 0 0 0 0 -0 -0 0 0 -0 0 0 0 0 0 0 -0 -0 0 0 0 0 0 0 -0 0 0 0 0 0
0 0 0 0 0 0 0 0 0 0 0 0 0 0 -0 0 0 0 -0 -0 -0 -0 -0 -0 -0 -0 -0 -0 -0 -0 -0 -0 -0 -0 -0 0 0 0 0 0 0 -0 -0 -0
Wind_Speed_500mb
14 11 1 7 9 10 14 27 42 44 38 32 35 40 40 51 43 14 35 44 52 53 48 41 42 50 50 49 43 47 57 95 84 61 67 47 44 34 37 32 45 99 81 111
13 1 7 8 12 12 17 32 37 29 8 28 37 44 52 13 12 17 29 41 53 64 67 57 44 43 38 44 41 44 50 67 88 57 65 55 51 32 29 30 38 59 68 57
4 5 15 6 15 8 9 26 14 35 44 35 24 15 8 4 7 39 53 51 53 53 64 74 61 48 37 36 36 33 42 50 69 85 60 65 49 44 34 26 26 30 46 68
11 9 9 12 11 3 21 11 33 42 24 7 11 9 4 9 12 34 55 57 59 64 72 71 69 51 40 29 22 29 54 43 51 60 54 58 53 52 50 42 32 34 29 53
11 7 9 10 12 6 21 40 37 30 9 9 13 4 7 11 21 43 46 69 69 68 64 70 65 59 39 29 26 28 57 39 54 56 61 40 54 49 51 41 36 28 24 44
13 11 6 8 23 10 19 24 12 5 2 5 7 3 5 9 22 40 52 64 70 75 74 59 54 53 34 22 32 33 45 60 38 44 43 57 39 47 40 37 34 28 27 38
15 7 6 4 13 10 18 13 9 14 10 8 5 6 11 8 29 27 35 61 69 66 65 57 50 39 21 5 14 23 29 45 32 28 39 50 58 42 41 40 38 32 29 37
8 15 7 12 4 11 9 8 6 9 8 20 13 7 9 8 40 47 49 56 60 58 64 51 42 26 17 8 12 15 27 43 46 42 40 34 48 48 43 37 38 37 32 36
5 13 9 6 4 4 13 9 6 9 4 6 8 12 10 23 38 44 49 51 60 69 62 49 38 26 23 11 7 7 15 29 30 30 34 41 38 38 38 39 35 36 30 40
6 12 5 13 4 6 9 4 9 6 11 11 12 11 8 45 49 40 40 50 57 58 58 47 38 26 24 17 12 9 5 11 16 23 27 32 28 41 43 40 38 32 22 27
6 5 13 6 2 9 10 10 5 2 5 6 11 9 7 38 34 38 34 51 55 57 52 42 36 25 23 19 13 13 7 4 8 10 11 11 20 28 31 33 25 24 26 19
8 7 11 17 7 5 7 4 5 3 10 6 8 9 10 35 25 40 44 50 54 53 45 37 35 30 26 23 17 13 9 1 4 5 16 23 26 27 30 31 25 29 34 33
7 4 9 15 9 4 4 8 2 7 6 5 10 11 15 39 33 47 45 51 56 55 48 43 36 32 27 21 18 11 6 1 4 11 16 18 19 26 24 27 29 29 25 29
7 6 13 11 13 3 10 17 6 6 3 12 9 31 29 33 40 47 54 55 56 57 56 46 43 35 28 24 20 16 11 9 8 7 9 17 23 21 20 26 27 32 30 30
6 8 4 12 21 8 12 13 12 4 10 3 22 24 29 20 30 50 50 54 55 59 60 56 50 44 37 31 26 20 17 16 16 16 21 27 25 25 32 34 30 33 36 35
3 6 2 10 11 10 9 11 12 3 5 10 12 6 19 41 32 40 51 60 58 58 57 55 53 50 48 42 37 35 36 35 32 38 43 43 44 41 49 53 61 61 60 61
3 5 6 11 10 10 10 14 9 7 8 7 2 8 13 26 30 44 46 46 49 54 55 56 57 54 53 52 49 50 49 51 59 63 64 62 67 67 60 64 60 58 58 50
8 6 4 8 11 7 11 4 5 9 9 11 8 9 17 18 32 36 49 55 57 59 62 62 63 63 60 57 60 60 63 65 67 70 69 68 63 64 61 59 56 54 50 45
8 7 2 1 4 14 5 8 11 9 11 13 8 5 13 19 23 10 37 38 43 46 48 50 51 54 56 60 64 68 71 73 73 70 68 66 63 62 58 54 51 47 43 41
8 10 6 4 6 9 8 4 5 4 9 18 12 5 3 11 5 6 30 32 32 35 38 38 41 46 50 56 57 60 65 64 63 57 54 50 49 47 48 47 44 42 37 37
3 6 9 6 7 17 10 11 12 10 10 23 18 12 7 5 5 10 20 23 25 28 30 30 35 42 43 42 43 49 48 56 49 42 41 42 43 41 39 37 36 33 30 27
14 14 8 6 4 15 25 13 13 7 17 26 22 17 15 9 3 10 17 19 21 25 28 34 40 43 43 41 40 41 41 40 35 32 31 32 33 31 30 27 28 26 23 19
5 13 8 17 12 5 54 7 28 18 31 30 26 22 15 9 5 8 13 16 17 21 26 32 37 39 40 42 40 37 38 34 31 27 23 23 22 20 19 17 18 16 15 13
9 12 6 6 8 25 31 45 29 28 27 28 26 24 20 12 8 6 10 11 10 15 17 22 27 32 36 39 41 37 33 28 24 19 18 16 14 12 11 11 10 8 7 5
7 17 10 12 18 13 37 46 38 41 34 35 32 27 19 16 10 5 3 5 8 7 7 8 14 22 28 34 40 37 32 29 26 24 20 17 14 13 12 12 11 10 9 10
27 15 11 14 21 17 18 56 48 52 48 42 36 33 28 22 14 9 2 3 5 7 8 10 13 19 25 30 35 33 32 30 28 25 20 16 14 12 10 10 9 9 11 16
Wind_Direction_500mb
12 48 311 255 196 239 268 280 289 288 284 286 281 281 289 290 287 13 356 349 346 338 330 312 294 288 280 266 271 275 251 249 253 274 279 284 269 233 240 244 227 225 230 209
17 219 252 278 270 250 256 283 293 289 274 305 294 295 290 328 94 48 1 346 343 335 337 328 315 301 288 263 268 266 251 234 245 265 273 268 273 255 243 221 208 228 250 225
283 288 315 280 300 271 269 287 282 289 312 291 289 295 100 2 65 2 0 348 338 334 329 330 323 313 302 264 264 271 254 227 246 254 271 258 264 252 250 239 237 228 226 227
251 289 319 316 292 258 312 256 298 298 320 308 50 289 310 336 346 360 351 343 336 334 332 332 324 312 305 271 258 241 231 214 221 242 253 252 249 249 249 253 253 255 249 232
258 329 1 322 277 25 257 306 304 296 245 296 328 261 279 4 346 344 340 338 335 334 332 332 326 313 294 271 253 207 213 232 216 217 225 250 248 252 247 244 243 243 242 226
253 298 235 240 298 269 323 311 353 15 103 12 263 1 352 16 336 331 334 332 331 332 336 339 337 323 295 267 252 223 210 214 220 237 224 231 246 240 242 243 247 246 243 241
328 278 295 283 314 334 7 6 342 2 3 254 287 317 243 194 358 337 324 326 327 328 335 345 348 343 351 308 232 212 201 192 205 233 245 226 231 236 238 242 249 238 247 250
30 331 14 343 91 274 339 87 114 302 317 302 352 263 280 194 352 338 332 329 326 330 344 348 358 360 2 59 113 156 182 183 198 207 226 221 221 234 236 239 246 241 245 251
359 277 301 208 301 105 307 25 217 263 183 6 287 292 311 351 335 339 342 337 333 337 346 352 355 12 18 48 89 156 193 191 196 204 217 224 225 228 232 237 248 242 257 267
206 298 250 291 343 350 137 308 354 1 329 310 292 292 266 342 346 342 341 340 336 339 352 356 353 15 15 20 35 29 228 205 206 226 232 225 220 221 224 228 236 230 247 258
129 137 288 350 356 204 350 353 343 165 263 303 304 292 297 356 341 334 335 337 338 347 355 356 3 23 18 6 10 22 11 297 251 247 247 211 208 212 205 207 211 219 220 211
195 184 277 244 263 147 146 257 257 292 301 259 258 290 336 2 338 336 335 340 347 2 4 7 17 20 24 12 20 13 359 64 232 209 218 193 191 192 192 175 177 187 185 191
158 311 331 346 7 23 46 300 27 275 279 273 320 307 356 348 349 350 346 351 359 7 14 21 27 28 28 26 27 25 20 26 175 183 178 169 176 182 188 170 180 205 192 202
193 213 180 208 220 199 316 310 341 69 39 310 280 316 333 353 352 354 354 358 5 14 20 30 37 38 40 40 41 45 42 66 89 124 132 143 159 159 158 166 176 182 187 198
116 214 280 250 264 219 241 258 304 79 243 312 314 324 343 357 353 349 356 2 7 12 23 29 37 43 49 56 61 68 81 88 89 109 110 103 106 126 137 138 140 138 137 134
75 265 78 293 322 260 266 237 268 138 279 256 289 300 336 336 351 5 358 359 6 12 25 39 45 51 54 59 69 80 87 94 98 96 96 104 109 115 119 120 119 116 114 111
94 119 53 273 342 335 323 222 214 221 191 211 351 252 316 330 349 360 359 6 9 19 34 46 50 52 59 65 73 80 87 98 101 101 102 105 108 107 107 106 105 106 105 108
127 87 86 270 356 5 244 225 207 199 221 197 269 270 284 328 335 1 14 14 21 30 35 43 51 55 60 71 76 82 87 88 90 92 95 96 96 99 100 98 97 97 98 100
148 116 37 36 272 288 319 191 188 187 279 188 208 253 287 308 318 312 13 22 24 30 39 45 52 57 60 64 68 73 74 76 76 73 78 81 82 83 84 84 88 95 97 99
91 67 121 65 161 230 242 178 163 112 291 176 185 190 263 337 4 289 357 16 28 35 42 47 54 58 60 58 62 64 67 69 71 75 78 79 80 89 94 94 94 91 91 92
50 19 171 192 234 285 230 158 134 86 243 168 173 173 166 179 213 342 7 19 32 41 48 50 55 57 59 61 64 69 71 72 69 70 75 78 79 78 77 79 83 83 86 88
173 150 203 86 73 284 161 119 180 199 154 167 172 171 159 149 85 17 21 33 51 62 64 61 59 56 54 53 52 56 62 64 67 69 73 79 83 83 80 75 78 80 77 78
285 191 182 187 214 252 186 182 198 190 175 181 184 179 173 158 121 66 42 49 65 65 59 55 52 49 48 47 45 44 47 46 47 47 48 54 61 69 77 80 80 75 73 69
244 176 212 56 251 224 219 224 225 205 198 187 186 187 180 168 155 118 73 56 49 46 52 48 42 36 35 34 34 36 38 39 39 37 43 48 46 38 24 14 12 10 6 350
194 144 187 266 271 264 237 223 218 199 195 192 190 192 188 189 175 150 101 41 38 40 34 20 21 20 23 25 23 23 25 26 26 22 15 13 15 16 10 356 348 333 304 271
187 191 176 224 226 207 219 213 196 194 196 195 195 192 194 196 194 193 180 11 360 353 351 348 357 7 13 15 14 14 14 15 15 15 14 8 358 343 336 324 329 323 280 286
Wind_Speed_850mb
14 11 1 7 9 10 14 27 42 44 38 32 35 40 40 51 43 14 35 44 52 53 48 41 42 50 50 49 43 47 57 95 84 61 67 47 44 34 37 32 45 99 81 111
13 1 7 8 12 12 17 32 37 29 8 28 37 44 52 13 12 17 29 41 53 64 67 57 44 43 38 44 41 44 50 67 88 57 65 55 51 32 29 30 38 59 68 57
4 5 15 6 15 8 9 26 14 35 44 35 24 15 8 4 7 39 53 51 53 53 64 74 61 48 37 36 36 33 42 50 69 85 60 65 49 44 34 26 26 30 46 68
11 9 9 12 11 3 21 11 33 42 24 7 11 9 4 9 12 34 55 57 59 64 72 71 69 51 40 29 22 29 54 43 51 60 54 58 53 52 50 42 32 34 29 53
11 7 9 10 12 6 21 40 37 30 9 9 13 4 7 11 21 43 46 69 69 68 64 70 65 59 39 29 26 28 57 39 54 56 61 40 54 49 51 41 36 28 24 44
13 11 6 8 23 10 19 24 12 5 2 5 7 3 5 9 22 40 52 64 70 75 74 59 54 53 34 22 32 33 45 60 38 44 43 57 39 47 40 37 34 28 27 38
15 7 6 4 13 10 18 13 9 14 10 8 5 6 11 8 29 27 35 61 69 66 65 57 50 39 21 5 14 23 29 45 32 28 39 50 58 42 41 40 38 32 29 37
8 15 7 12 4 11 9 8 6 9 8 20 13 7 9 8 40 47 49 56 60 58 64 51 42 26 17 8 12 15 27 43 46 42 40 34 48 48 43 37 38 37 32 36
5 13 9 6 4 4 13 9 6 9 4 6 8 12 10 23 38 44 49 51 60 69 62 49 38 26 23 11 7 7 15 29 30 30 34 41 38 38 38 39 35 36 30 40
6 12 5 13 4 6 9 4 9 6 11 11 12 11 8 45 49 40 40 50 57 58 58 47 38 26 24 17 12 9 5 11 16 23 27 32 28 41 43 40 38 32 22 27
6 5 13 6 2 9 10 10 5 2 5 6 11 9 7 38 34 38 34 51 55 57 52 42 36 25 23 19 13 13 7 4 8 10 11 11 20 28 31 33 25 24 26 19
8 7 11 17 7 5 7 4 5 3 10 6 8 9 10 35 25 40 44 50 54 53 45 37 35 30 26 23 17 13 9 1 4 5 16 23 26 27 30 31 25 29 34 33
7 4 9 15 9 4 4 8 2 7 6 5 10 11 15 39 33 47 45 51 56 55 48 43 36 32 27 21 18 11 6 1 4 11 16 18 19 26 24 27 29 29 25 29
7 6 13 11 13 3 10 17 6 6 3 12 9 31 29 33 40 47 54 55 56 57 56 46 43 35 28 24 20 16 11 9 8 7 9 17 23 21 20 26 27 32 30 30
6 8 4 12 21 8 12 13 12 4 10 3 22 24 29 20 30 50 50 54 55 59 60 56 50 44 37 31 26 20 17 16 16 16 21 27 25 25 32 34 30 33 36 35
3 6 2 10 11 10 9 11 12 3 5 10 12 6 19 41 32 40 51 60 58 58 57 55 53 50 48 42 37 35 36 35 32 38 43 43 44 41 49 53 61 61 60 61
3 5 6 11 10 10 10 14 9 7 8 7 2 8 13 26 30 44 46 46 49 54 55 56 57 54 53 52 49 50 49 51 59 63 64 62 67 67 60 64 60 58 58 50
8 6 4 8 11 7 11 4 5 9 9 11 8 9 17 18 32 36 49 55 57 59 62 62 63 63 60 57 60 60 63 65 67 70 69 68 63 64 61 59 56 54 50 45
8 7 2 1 4 14 5 8 11 9 11 13 8 5 13 19 23 10 37 38 43 46 48 50 51 54 56 60 64 68 71 73 73 70 68 66 63 62 58 54 51 47 43 41
8 10 6 4 6 9 8 4 5 4 9 18 12 5 3 11 5 6 30 32 32 35 38 38 41 46 50 56 57 60 65 64 63 57 54 50 49 47 48 47 44 42 37 37
3 6 9 6 7 17 10 11 12 10 10 23 18 12 7 5 5 10 20 23 25 28 30 30 35 42 43 42 43 49 48 56 49 42 41 42 43 41 39 37 36 33 30 27
14 14 8 6 4 15 25 13 13 7 17 26 22 17 15 9 3 10 17 19 21 25 28 34 40 43 43 41 40 41 41 40 35 32 31 32 33 31 30 27 28 26 23 19
5 13 8 17 12 5 54 7 28 18 31 30 26 22 15 9 5 8 13 16 17 21 26 32 37 39 40 42 40 37 38 34 31 27 23 23 22 20 19 17 18 16 15 13
9 12 6 6 8 25 31 45 29 28 27 28 26 24 20 12 8 6 10 11 10 15 17 22 27 32 36 39 41 37 33 28 24 19 18 16 14 12 11 11 10 8 7 5
7 17 10 12 18 13 37 46 38 41 34 35 32 27 19 16 10 5 3 5 8 7 7 8 14 22 28 34 40 37 32 29 26 24 20 17 14 13 12 12 11 10 9 10
27 15 11 14 21 17 18 56 48 52 48 42 36 33 28 22 14 9 2 3 5 7 8 10 13 19 25 30 35 33 32 30 28 25 20 16 14 12 10 10 9 9 11 16
Wind_Direction_850mb
12 48 311 255 196 239 268 280 289 288 284 286 281 281 289 290 287 13 356 349 346 338 330 312 294 288 280 266 271 275 251 249 253 274 279 284 269 233 240 244 227 225 230 209
17 219 252 278 270 250 256 283 293 289 274 305 294 295 290 328 94 48 1 346 343 335 337 328 315 301 288 263 268 266 251 234 245 265 273 268 273 255 243 221 208 228 250 225
283 288 315 280 300 271 269 287 282 289 312 291 289 295 100 2 65 2 0 348 338 334 329 330 323 313 302 264 264 271 254 227 246 254 271 258 264 252 250 239 237 228 226 227
251 289 319 316 292 258 312 256 298 298 320 308 50 289 310 336 346 360 351 343 336 334 332 332 324 312 305 271 258 241 231 214 221 242 253 252 249 249 249 253 253 255 249 232
258 329 1 322 277 25 257 306 304 296 245 296 328 261 279 4 346 344 340 338 335 334 332 332 326 313 294 271 253 207 213 232 216 217 225 250 248 252 247 244 243 243 242 226
253 298 235 240 298 269 323 311 353 15 103 12 263 1 352 16 336 331 334 332 331 332 336 339 337 323 295 267 252 223 210 214 220 237 224 231 246 240 242 243 247 246 243 241
328 278 295 283 314 334 7 6 342 2 3 254 287 317 243 194 358 337 324 326 327 328 335 345 348 343 351 308 232 212 201 192 205 233 245 226 231 236 238 242 249 238 247 250
30 331 14 343 91 274 339 87 114 302 317 302 352 263 280 194 352 338 332 329 326 330 344 348 358 360 2 59 113 156 182 183 198 207 226 221 221 234 236 239 246 241 245 251
359 277 301 208 301 105 307 25 217 263 183 6 287 292 311 351 335 339 342 337 333 337 346 352 355 12 18 48 89 156 193 191 196 204 217 224 225 228 232 237 248 242 257 267
206 298 250 291 343 350 137 308 354 1 329 310 292 292 266 342 346 342 341 340 336 339 352 356 353 15 15 20 35 29 228 205 206 226 232 225 220 221 224 228 236 230 247 258
129 137 288 350 356 204 350 353 343 165 263 303 304 292 297 356 341 334 335 337 338 347 355 356 3 23 18 6 10 22 11 297 251 247 247 211 208 212 205 207 211 219 220 211
195 184 277 244 263 147 146 257 257 292 301 259 258 290 336 2 338 336 335 340 347 2 4 7 17 20 24 12 20 13 359 64 232 209 218 193 191 192 192 175 177 187 185 191
158 311 331 346 7 23 46 300 27 275 279 273 320 307 356 348 349 350 346 351 359 7 14 21 27 28 28 26 27 25 20 26 175 183 178 169 176 182 188 170 180 205 192 202
193 213 180 208 220 199 316 310 341 69 39 310 280 316 333 353 352 354 354 358 5 14 20 30 37 38 40 40 41 45 42 66 89 124 132 143 159 159 158 166 176 182 187 198
116 214 280 250 264 219 241 258 304 79 243 312 314 324 343 357 353 349 356 2 7 12 23 29 37 43 49 56 61 68 81 88 89 109 110 103 106 126 137 138 140 138 137 134
75 265 78 293 322 260 266 237 268 138 279 256 289 300 336 336 351 5 358 359 6 12 25 39 45 51 54 59 69 80 87 94 98 96 96 104 109 115 119 120 119 116 114 111
94 119 53 273 342 335 323 222 214 221 191 211 351 252 316 330 349 360 359 6 9 19 34 46 50 52 59 65 73 80 87 98 101 101 102 105 108 107 107 106 105 106 105 108
127 87 86 270 356 5 244 225 207 199 221 197 269 270 284 328 335 1 14 14 21 30 35 43 51 55 60 71 76 82 87 88 90 92 95 96 96 99 100 98 97 97 98 100
148 116 37 36 272 288 319 191 188 187 279 188 208 253 287 308 318 312 13 22 24 30 39 45 52 57 60 64 68 73 74 76 76 73 78 81 82 83 84 84 88 95 97 99
91 67 121 65 161 230 242 178 163 112 291 176 185 190 263 337 4 289 357 16 28 35 42 47 54 58 60 58 62 64 67 69 71 75 78 79 80 89 94 94 94 91 91 92
50 19 171 192 234 285 230 158 134 86 243 168 173 173 166 179 213 342 7 19 32 41 48 50 55 57 59 61 64 69 71 72 69 70 75 78 79 78 77 79 83 83 86 88
173 150 203 86 73 284 161 119 180 199 154 167 172 171 159 149 85 17 21 33 51 62 64 61 59 56 54 53 52 56 62 64 67 69 73 79 83 83 80 75 78 80 77 78
285 191 182 187 214 252 186 182 198 190 175 181 184 179 173 158 121 66 42 49 65 65 59 55 52 49 48 47 45 44 47 46 47 47 48 54 61 69 77 80 80 75 73 69
244 176 212 56 251 224 219 224 225 205 198 187 186 187 180 168 155 118 73 56 49 46 52 48 42 36 35 34 34 36 38 39 39 37 43 48 46 38 24 14 12 10 6 350
194 144 187 266 271 264 237 223 218 199 195 192 190 192 188 189 175 150 101 41 38 40 34 20 21 20 23 25 23 23 25 26 26 22 15 13 15 16 10 356 348 333 304 271
187 191 176 224 226 207 219 213 196 194 196 195 195 192 194 196 194 193 180 11 360 353 351 348 357 7 13 15 14 14 14 15 15 15 14 8 358 343 336 324 329 323 280 286